[[{"header":{"parameterUnit":"m.s-1","parameterCategory":1,"la1":30.2991,"la2":30.254,"lo1":-89.0895,"lo2":-89.0444,"dy":0.0017,"dx":0.0017,"nx":28,"ny":28,"refTime":"2024-10-06T09:00:00:Z","depth":0,"parameterNumber":2,"parameterNumberName":"U-component_of_WINDS"},"data":[0,0,0,0,0,0,0,0,0,0,0,0,0,0,0,0,0,0,0,0,0,0,0,0,0,0,0,0,0,0,0,0,0,0,0,0,0,0,0,0,0,0,0,0,0,0,0,0,0,0,0,0,0,0,0,0,0,0,-4.487,-4.487,0,-4.4908,-4.4908,-4.4908,-4.4767,-4.4763,-4.4759,-4.4755,-4.4794,-4.4799,-4.4804,0,0,0,0,0,0,0,0,0,0,0,0,0,-4.4676,-4.4681,-4.487,-4.487,-4.4871,-4.4907,-4.4908,-4.4908,-4.4768,-4.4763,-4.4758,-4.4753,-4.4793,-4.4798,-4.4804,0,0,0,0,0,0,0,0,0,0,0,0,0,-4.4742,-4.4682,-4.487,-4.4805,-4.48,-4.4907,-4.4908,-4.4909,-4.4769,-4.4763,-4.4756,-4.4751,-4.4791,-4.4798,-4.4805,-4.4977,0,0,-4.4828,-4.4831,0,0,0,0,0,0,0,0,-4.4738,-4.4749,-4.4814,-4.481,-4.4804,-4.4826,-4.4854,-4.4932,-4.4771,-4.4781,-4.4755,-4.4747,-4.481,-4.4815,-4.4836,-4.4979,-4.4981,-4.4829,-4.4833,-4.4836,-4.4838,0,0,0,0,0,0,0,-4.4734,-4.4747,-4.4885,-4.4815,-4.4809,-4.4774,-4.4777,-4.4868,-4.483,-4.4779,-4.4769,-4.4776,-4.4806,-4.483,-4.4836,-4.4981,-4.4828,-4.4835,-4.484,-4.4842,-4.5267,-4.5273,0,0,0,0,0,0,-4.4738,-4.4744,-4.4884,-4.4886,-4.4755,-4.4783,-4.4785,-4.4825,-4.4829,-4.4823,-4.4781,-4.4769,-4.482,-4.4828,-4.4837,-4.5039,-4.4836,-4.4843,-4.4847,-4.526,-4.5268,-4.5276,0,0,0,0,0,0,-4.4734,-4.4752,-4.4882,-4.4812,-4.4826,-4.4793,-4.4839,-4.483,-4.4853,-4.483,-4.4823,-4.4812,-4.4815,-4.4827,-4.4943,-4.5039,-4.4847,-4.4853,-4.5252,-4.5262,-4.5272,-4.5445,0,0,0,0,0,0,-4.4729,-4.4751,-4.4817,-4.4815,-4.483,-4.4989,-4.4845,-4.4835,-4.4866,-4.4851,-4.4857,-4.4852,-4.4811,-4.4933,-4.4951,-4.5045,-4.4859,-4.5243,-4.5257,-4.5269,-4.5431,-4.546,-4.5485,0,0,0,0,0,-4.4723,-4.4864,-4.4821,-4.4838,-4.4911,-4.4994,-4.5003,-4.4953,-4.4874,-4.494,-4.4925,-4.4852,-4.5025,-4.4946,-4.4965,-4.5063,-4.5237,-4.5253,-4.5268,-4.5419,-4.5454,-4.5484,0,0,0,0,0,0,-4.4878,-4.4863,-4.4814,-4.4959,-4.4979,-4.497,-4.5051,-4.4992,-4.5035,-4.5019,-4.4954,-4.4957,-4.5086,-4.5085,-4.4998,-4.523,-4.5117,-4.5137,-4.5226,-4.5259,-4.5286,-4.5284,-4.4865,0,0,0,0,0,-4.4929,-4.4998,-4.498,-4.511,-4.5122,-4.5085,-4.5119,-4.5079,-4.5097,-4.5105,-4.5098,-4.5119,-4.5178,-4.5218,-4.5271,-4.5429,-4.5429,-4.5506,-4.5533,-4.5555,-4.5574,-4.5658,-4.5692,-4.5326,-4.5326,-4.5325,0,0,-4.5036,-4.5036,-4.5083,-4.5141,-4.5152,-4.5224,-4.5093,-4.5176,-4.5229,-4.5117,-4.5228,-4.5224,-4.5242,-4.5381,-4.5441,-4.5385,-4.5674,-4.5575,-4.5593,-4.5599,-4.5677,-4.5712,-4.5743,-4.5336,-4.5334,-4.5333,0,0,-4.5267,-4.5274,-4.5382,-4.5395,-4.5413,-4.5387,-4.5414,-4.5414,-4.5407,-4.5516,-4.5434,-4.5496,-4.5598,-4.5615,-4.5637,-4.5874,-4.5809,-4.5892,-4.6035,-4.6118,-4.6147,-4.6172,-4.6258,-4.6289,-4.591,-4.5911,-4.5911,0,-4.5398,-4.5504,-4.5446,-4.5534,-4.5562,-4.5463,-4.5573,-4.5588,-4.5623,-4.5644,-4.558,-4.5706,-4.5712,-4.5853,-4.5911,-4.5931,-4.596,-4.5893,-4.6147,-4.6172,-4.6195,-4.6276,-4.6308,-4.5921,-4.592,-4.5919,-4.5918,0,-4.5663,-4.5738,-4.5824,-4.586,-4.5897,-4.5995,-4.5952,-4.5997,-4.5952,-4.5934,-4.6046,-4.6049,-4.6101,-4.6131,-4.6088,-4.6266,-4.6231,-4.6158,-4.6044,-4.6241,-4.6316,-4.6346,-4.5936,-4.5932,-4.5929,-4.5926,0,0,-4.5996,-4.5997,-4.603,-4.6045,-4.6056,-4.6113,-4.6207,-4.6257,-4.6297,-4.6323,-4.6401,-4.6489,-4.6422,-4.6447,-4.6405,-4.6478,-4.6666,-4.6395,-4.6395,-4.6447,-4.6864,-4.692,-4.6957,-4.6622,-4.6628,-4.6632,-4.6862,0,-4.6224,-4.6385,-4.6335,-4.6497,-4.6566,-4.6472,-4.6554,-4.657,-4.6555,-4.661,-4.6592,-4.6657,-4.6562,-4.6577,-4.6644,-4.6629,-4.6749,-4.6611,-4.6695,-4.6698,-4.6695,-4.6996,-4.7056,-4.7273,-4.6891,-4.6896,-4.69,0,-4.6513,-4.6551,-4.672,-4.672,-4.6747,-4.6821,-4.6863,-4.6917,-4.6933,-4.6917,-4.6945,-4.6888,-4.6979,-4.6864,-4.699,-4.6898,-4.6928,-4.6926,-4.6933,-4.694,-4.6813,-4.7013,-4.7341,-4.7375,-4.6945,-4.6941,-4.6938,0,-4.6741,-4.6833,-4.6947,-4.6962,-4.6964,-4.7019,-4.7023,-4.7032,-4.7065,-4.7102,-4.7123,-4.7169,-4.7196,-4.7233,-4.719,-4.711,-4.7323,-4.7204,-4.7313,-4.7314,-4.7364,-4.7362,-4.7703,-4.7381,-4.738,-4.738,-4.7379,0,-4.7002,-4.711,-4.7049,-4.712,-4.7237,-4.7178,-4.7296,-4.7288,-4.7298,-4.7365,-4.7285,-4.735,-4.7288,-4.7347,-4.7314,-4.7424,-4.7436,-4.7426,-4.7416,-4.7434,-4.7436,-4.7455,-4.744,-4.7388,-4.7387,-4.7385,-4.7383,0,-4.7277,-4.7241,-4.7359,-4.7351,-4.7351,-4.7438,-4.7431,-4.7496,-4.7474,-4.756,-4.7576,-4.7542,-4.7608,-4.7568,-4.7634,-4.7611,-4.7755,-4.7724,-4.7751,-4.7743,-4.7855,-4.7846,-4.8222,-4.8269,-4.7915,-4.7919,-4.7922,0,-4.7448,-4.7528,-4.7529,-4.7568,-4.7577,-4.7641,-4.7674,-4.7618,-4.7656,-4.768,-4.7742,-4.78,-4.7844,-4.7952,-4.7934,-4.7984,-4.7954,-4.8083,-4.7961,-4.7977,-4.7958,-4.7955,-4.7963,-4.8108,-4.8112,-4.8116,-4.8118,0,-4.7755,-4.7732,-4.7783,-4.7829,-4.7871,-4.7904,-4.793,-4.7967,-4.7911,-4.7958,-4.8023,-4.8057,-4.8124,-4.8184,-4.8226,-4.8229,-4.8166,-4.8156,-4.8184,-4.8205,-4.8218,-4.8214,-4.7819,-4.8148,-4.8145,-4.8143,-4.8142,-4.814,-4.7984,-4.8051,-4.8062,-4.8122,-4.8135,-4.8162,-4.8222,-4.8207,-4.8261,-4.8312,-4.8275,-4.8353,-4.8366,-4.8416,-4.8427,-4.8487,-4.8435,-4.8476,-4.8487,-4.8498,-4.8514,-4.8207,-4.8494,-4.8493,-4.8493,-4.8492,-4.8491,0,-4.8288,-4.829,-4.8345,-4.8385,-4.8432,-4.8366,-4.8391,-4.8436,-4.8505,-4.8522,-4.8567,-4.8643,-4.8699,-4.8685,-4.8735,-4.8787,-4.8759,-4.8802,-4.8799,-4.8801,-4.8557,-4.8528,-4.8824,-4.8824,-4.8824,-4.8824,-4.8824,-4.8823,-4.8452,-4.8563,-4.8542,-4.8659,-4.8659,-4.8735,-4.8756,-4.878,-4.8793,-4.8881,-4.8928,-4.8917,-4.8922,-4.8972,-4.9021,-4.9015,-4.9039,-4.9093,-4.9077,-4.8851,-4.8818,-4.8787,-4.8759,-4.9098,-4.9099,-4.9316,-4.9318,-4.9319]},{"header":{"parameterUnit":"m.s-1","parameterCategory":1,"la1":30.2991,"la2":30.254,"lo1":-89.0895,"lo2":-89.0444,"dy":0.0017,"dx":0.0017,"nx":28,"ny":28,"refTime":"2024-10-06T09:00:00:Z","depth":0,"parameterNumber":3,"parameterNumberName":"V-component_of_WINDS"},"data":[0,0,0,0,0,0,0,0,0,0,0,0,0,0,0,0,0,0,0,0,0,0,0,0,0,0,0,0,0,0,0,0,0,0,0,0,0,0,0,0,0,0,0,0,0,0,0,0,0,0,0,0,0,0,0,0,0,0,-5.0984,-5.0985,0,-5.102,-5.102,-5.1021,-5.094,-5.0938,-5.0935,-5.0933,-5.0967,-5.097,-5.0974,0,0,0,0,0,0,0,0,0,0,0,0,0,-5.0844,-5.0847,-5.0984,-5.0985,-5.0985,-5.102,-5.102,-5.1021,-5.0941,-5.0938,-5.0935,-5.0932,-5.0966,-5.097,-5.0974,0,0,0,0,0,0,0,0,0,0,0,0,0,-5.0895,-5.0848,-5.0984,-5.095,-5.0947,-5.102,-5.102,-5.1021,-5.0942,-5.0938,-5.0934,-5.093,-5.0965,-5.097,-5.0975,-5.1082,0,0,-5.099,-5.0992,0,0,0,0,0,0,0,0,-5.0892,-5.09,-5.0954,-5.0952,-5.0949,-5.0972,-5.0983,-5.1041,-5.0943,-5.0944,-5.0933,-5.0928,-5.0972,-5.0976,-5.0991,-5.1084,-5.1085,-5.099,-5.0993,-5.0995,-5.0997,0,0,0,0,0,0,0,-5.0889,-5.0898,-5.0998,-5.0955,-5.0952,-5.0931,-5.0934,-5.0994,-5.0979,-5.0943,-5.0937,-5.0943,-5.097,-5.0986,-5.0991,-5.1085,-5.099,-5.0994,-5.0997,-5.0999,-5.1265,-5.1269,0,0,0,0,0,0,-5.089,-5.0896,-5.0997,-5.0999,-5.0911,-5.0937,-5.094,-5.0968,-5.0978,-5.0976,-5.0946,-5.0939,-5.098,-5.0985,-5.0992,-5.1117,-5.0995,-5.1,-5.1003,-5.1261,-5.1266,-5.1271,0,0,0,0,0,0,-5.0887,-5.09,-5.0996,-5.0946,-5.0957,-5.0943,-5.0976,-5.0971,-5.0988,-5.098,-5.0977,-5.0966,-5.0977,-5.0985,-5.106,-5.1117,-5.1002,-5.1007,-5.1257,-5.1263,-5.1269,-5.1368,0,0,0,0,0,0,-5.0884,-5.0899,-5.0941,-5.0948,-5.096,-5.1064,-5.0979,-5.0975,-5.0997,-5.0988,-5.0998,-5.0996,-5.0975,-5.1053,-5.1065,-5.1122,-5.101,-5.1251,-5.1259,-5.1267,-5.136,-5.1377,-5.1392,0,0,0,0,0,-5.0879,-5.0968,-5.0944,-5.0956,-5.1012,-5.1068,-5.1075,-5.1049,-5.1002,-5.1043,-5.1037,-5.0996,-5.1109,-5.1061,-5.1074,-5.1133,-5.1248,-5.1257,-5.1266,-5.1353,-5.1374,-5.1392,0,0,0,0,0,0,-5.0968,-5.0968,-5.0941,-5.1035,-5.1052,-5.1054,-5.1105,-5.1072,-5.1102,-5.1093,-5.1058,-5.1061,-5.1142,-5.1145,-5.1092,-5.1236,-5.117,-5.1182,-5.1232,-5.1252,-5.1267,-5.1265,-5.1014,0,0,0,0,0,-5.0999,-5.1045,-5.1042,-5.1125,-5.1135,-5.1119,-5.1143,-5.1121,-5.1137,-5.1144,-5.1144,-5.116,-5.1199,-5.1225,-5.1261,-5.136,-5.136,-5.1407,-5.1423,-5.1436,-5.1447,-5.1497,-5.1518,-5.1301,-5.1301,-5.1301,0,0,-5.1062,-5.1068,-5.11,-5.1143,-5.1154,-5.1202,-5.1126,-5.118,-5.1214,-5.1152,-5.1222,-5.1223,-5.1238,-5.1325,-5.1364,-5.133,-5.1507,-5.1448,-5.1458,-5.1462,-5.1509,-5.1529,-5.1548,-5.1307,-5.1306,-5.1305,0,0,-5.1202,-5.1212,-5.1282,-5.1294,-5.1311,-5.1299,-5.1316,-5.1323,-5.1321,-5.1391,-5.1344,-5.1384,-5.1453,-5.1465,-5.1481,-5.1624,-5.1586,-5.1636,-5.172,-5.177,-5.1787,-5.1802,-5.1851,-5.187,-5.1647,-5.1648,-5.1648,0,-5.1279,-5.135,-5.1321,-5.1378,-5.1398,-5.1344,-5.1412,-5.1425,-5.1453,-5.1467,-5.143,-5.1513,-5.152,-5.1608,-5.1643,-5.1658,-5.1675,-5.1635,-5.1787,-5.1801,-5.1815,-5.1862,-5.1881,-5.1653,-5.1653,-5.1652,-5.1652,0,-5.1443,-5.1493,-5.1547,-5.1575,-5.16,-5.1664,-5.1643,-5.1672,-5.1648,-5.164,-5.1711,-5.1717,-5.1752,-5.1771,-5.1749,-5.1856,-5.1835,-5.1793,-5.1725,-5.1842,-5.1885,-5.1903,-5.1662,-5.166,-5.1658,-5.1657,0,0,-5.1641,-5.1651,-5.1672,-5.1683,-5.1697,-5.1734,-5.1794,-5.1828,-5.1853,-5.1874,-5.1922,-5.198,-5.1941,-5.1958,-5.1936,-5.198,-5.2091,-5.1932,-5.1932,-5.196,-5.2208,-5.2239,-5.226,-5.2066,-5.2069,-5.2072,-5.2206,0,-5.1779,-5.1882,-5.1856,-5.1958,-5.2002,-5.195,-5.2002,-5.2015,-5.2009,-5.2045,-5.2037,-5.2079,-5.2024,-5.2034,-5.2075,-5.2069,-5.214,-5.2059,-5.2109,-5.2111,-5.2106,-5.2283,-5.2316,-5.2443,-5.2223,-5.2226,-5.2228,0,-5.1953,-5.198,-5.2086,-5.2091,-5.2109,-5.2156,-5.2184,-5.222,-5.2233,-5.2225,-5.2245,-5.2213,-5.227,-5.2203,-5.228,-5.2225,-5.2244,-5.2244,-5.2248,-5.2251,-5.2176,-5.229,-5.2483,-5.2501,-5.2255,-5.2253,-5.2251,0,-5.2086,-5.2148,-5.2219,-5.2231,-5.2239,-5.2273,-5.2277,-5.2287,-5.2309,-5.2333,-5.2347,-5.2378,-5.2395,-5.2419,-5.2396,-5.235,-5.2477,-5.2408,-5.2471,-5.2471,-5.2499,-5.2498,-5.2697,-5.2513,-5.2513,-5.2513,-5.2512,0,-5.2241,-5.2308,-5.2279,-5.2322,-5.2395,-5.2364,-5.2436,-5.2435,-5.2444,-5.2485,-5.2442,-5.2481,-5.2449,-5.2486,-5.2468,-5.2534,-5.2542,-5.2536,-5.2531,-5.254,-5.2541,-5.2551,-5.2542,-5.2518,-5.2517,-5.2516,-5.2515,0,-5.2401,-5.2385,-5.2458,-5.2459,-5.2461,-5.2514,-5.2515,-5.2554,-5.2544,-5.2597,-5.2607,-5.2592,-5.2632,-5.2612,-5.2654,-5.2642,-5.2727,-5.271,-5.2722,-5.2718,-5.2781,-5.2775,-5.2993,-5.302,-5.282,-5.2822,-5.2824,0,-5.2502,-5.2552,-5.2558,-5.2582,-5.259,-5.2631,-5.2652,-5.2624,-5.2648,-5.2666,-5.2703,-5.274,-5.2768,-5.2835,-5.2826,-5.2858,-5.284,-5.2915,-5.2845,-5.2852,-5.284,-5.2837,-5.2841,-5.2929,-5.2931,-5.2933,-5.2934,0,-5.2681,-5.267,-5.2703,-5.2733,-5.276,-5.2783,-5.2801,-5.2824,-5.2795,-5.2825,-5.2866,-5.2887,-5.293,-5.2966,-5.2993,-5.2996,-5.2961,-5.2956,-5.2972,-5.2982,-5.2987,-5.2984,-5.276,-5.2951,-5.295,-5.2949,-5.2948,-5.2947,-5.2813,-5.2854,-5.2865,-5.2903,-5.2913,-5.2931,-5.2968,-5.2963,-5.2996,-5.3029,-5.3009,-5.3057,-5.3067,-5.31,-5.3108,-5.3144,-5.3114,-5.3138,-5.3143,-5.3149,-5.3157,-5.2982,-5.3149,-5.3148,-5.3148,-5.3147,-5.3147,0,-5.2989,-5.2993,-5.3028,-5.3055,-5.3085,-5.3048,-5.3067,-5.3093,-5.3136,-5.3149,-5.3177,-5.3223,-5.3257,-5.3252,-5.3283,-5.3313,-5.3297,-5.3322,-5.3319,-5.332,-5.3183,-5.3165,-5.3334,-5.3334,-5.3334,-5.3334,-5.3334,-5.3334,-5.3084,-5.3151,-5.3141,-5.3212,-5.3215,-5.3262,-5.3275,-5.329,-5.33,-5.3354,-5.3382,-5.3378,-5.3383,-5.3414,-5.3444,-5.3441,-5.3454,-5.3485,-5.3476,-5.3348,-5.333,-5.3312,-5.3295,-5.3488,-5.3489,-5.361,-5.3611,-5.3612]}]]